Notices

What's New in latest Release from April 7th, 2021:

- Updated Glossary, including Speed of Maximum Gust, and Total Hourly Precipitation

- Updated national and regional climate services offices contacts and prices information

- Addition of station inventory lists for 1981-2010, 1971-2000, and 1961-1990 Normals.

If you haven't already, please take our survey and provide feedback about our website: https://eccc.sondage-survey.ca/f/LanguageSelection.aspx?s=442ca660-fcf1-47c0-95a9-59707d6fd709

Hourly Data Report for March 22, 2020

MIRAMICHI RCS
NEW BRUNSWICK
Current Station Operator: ECCC - MSC

47°00'34.000" N
65°27'54.000" W
33.00 m
8100989
71744
ACQ

Download Data

Hourly Data (March 2020)
Hourly Data Report for March 22, 2020
TIME
LST
Temp Definition
°C
Dew Point Definition
°C
Rel Hum Definition
%
Precip. Amount Definition
mm

Wind Dir Definition
10's deg

Wind Spd Definition
km/h
Visibility Definition
km
Stn Press Definition
kPa
Hmdx Definition


Wind Chill Definition


Weather Definition


00:00 -9.4 -18.0 50 LegendMM 30 20   102.48   -17 LegendNANA
01:00 -10.2 -18.0 53 LegendMM 31 11   102.57   -16 LegendNANA
02:00 -10.9 -19.5 49 LegendMM 31 19   102.66   -19 LegendNANA
03:00 -11.5 -19.7 50 LegendMM 30 13   102.68   -18 LegendNANA
04:00 -11.9 -19.7 53 LegendMM 30 15   102.70   -19 LegendNANA
05:00 -12.4 -19.7 55 LegendMM 29 16   102.74   -20 LegendNANA
06:00 -13.1 -19.7 57 LegendMM 30 10   102.84   -19 LegendNANA
07:00 -13.1 -19.9 57 LegendMM 29 11   102.94   -19 LegendNANA
08:00 -12.2 -20.2 51 LegendMM 30 13   103.01   -19 LegendNANA
09:00 -11.4 -21.5 43 LegendMM 32 17   103.07   -19 LegendNANA
10:00 -9.8 -20.6 41 LegendMM 30 18   103.08   -17 LegendNANA
11:00 -8.6 -21.0 36 LegendMM 32 15   103.09   -15 LegendNANA
12:00 -6.9 -19.7 35 LegendMM 29 17   103.08   -13 LegendNANA
13:00 -5.9 -19.6 33 LegendMM 29 20   103.08   -13 LegendNANA
14:00 -4.7 -19.4 31 LegendMM 30 19   103.08   -11 LegendNANA
15:00 -3.7 -20.2 27 LegendMM 31 18   103.08   -10 LegendNANA
16:00 -3.1 -20.9 24 LegendMM 31 16   103.10   -8 LegendNANA
17:00 -2.9 -20.7 24 LegendMM 31 17   103.17   -8 LegendNANA
18:00 -3.3 -21.2 24 LegendMM 31 15   103.25   -8 LegendNANA
19:00 -4.6 -20.4 28 LegendMM 31 9   103.32   -8 LegendNANA
20:00 -6.0 -19.1 35 LegendMM 29 7   103.43   -9 LegendNANA
21:00 -7.1 -19.4 37 LegendMM 32 7   103.47   -11 LegendNANA
22:00 -7.6 -19.0 40 LegendMM 31 9   103.55   -12 LegendNANA
23:00 -8.5 -19.0 43 LegendMM 30 10   103.56   -13 LegendNANA

Notes on Data Quality.

Legend

  • E = Estimated
  • M = Missing
  • NA = Not Available*
  • [empty] = Indicates an unobserved value
Date modified: